Rutland, VT

9:34 PM EDT on July 24, 2017 (GMT -0400)
Rutland State

Weather History for KRUT - June, 2012

Change the Weather History Date:

Saturday, June 9, 2012

  Actual Average Record
Temperature  
Mean Temperature 61 °F -  
Max Temperature 73 °F - 91 °F (2008)
Min Temperature 48 °F - 37 °F (1957)
Degree Days  
Heating Degree Days 4    
Month to date heating degree days 70  
Since 1 June heating degree days 70  
Since 1 July heating degree days 6052  
Cooling Degree Days 0    
Month to date cooling degree days 0  
Year to date cooling degree days 42  
Since 1 June cooling degree days 0  
Growing Degree Days 10 (Base 50)    
Moisture  
Dew Point 48 °F    
Average Humidity 59    
Maximum Humidity 83    
Minimum Humidity 35    
Precipitation  
Precipitation 0.00 in - 1.01 in (1963)
Month to date precipitation 0.82  
Year to date precipitation 9.14  
Sea Level Pressure  
Sea Level Pressure 29.89 in    
Wind  
Wind Speed 5 mph (SSE)    
Max Wind Speed 9 mph    
Max Gust Speed -    
Visibility 8 miles    
Events      
T = Trace of Precipitation, MM = Missing Value Source: NWS Daily Summary

Daily Weather History Graph

Daily Weather History Graph

Search for Another Location

Airport or City:

Trip Planner

Search our weather history database for the weather conditions in past years. The results will help you decide how hot, cold, wet, or windy it might be!

Date:

Astronomy

Jun. 09, 2012 Rise Set
Actual Time 5:10 AM EDT 8:31 PM EDT
Civil Twilight 4:35 AM EDT 9:07 PM EDT
Nautical Twilight 3:48 AM EDT 9:53 PM EDT
Astronomical Twilight 2:51 AM EDT 10:51 PM EDT
Moon No Moon Rise 11:01 AM EDT (6/9)
Length of Visible Light 16h 32m
Length of Day
15h 21m
Waning Gibbous, 68% of the Moon is Illuminated
Jun 9
Waning Gibbous
Jun 11
Last Quarter
Jun 19
New
Jun 26
First Quarter
Jul 3
Full

Hourly Weather History & Observations

Time (EDT) Temp. Dew Point Humidity Pressure Visibility Wind Dir Wind Speed Gust Speed Precip Events Conditions
12:15 AM 55.4 °F 46.4 °F 72% 29.84 in 10.0 mi Calm Calm - N/A   Mostly Cloudy
12:35 AM 53.6 °F 46.4 °F 77% 29.84 in 10.0 mi Calm Calm - N/A   Partly Cloudy
12:55 AM 53.6 °F 46.4 °F 77% 29.84 in 2.5 mi Calm Calm - N/A   Clear
1:15 AM 51.8 °F 46.4 °F 82% 29.84 in 2.0 mi SE 5.8 mph - N/A   Clear
1:35 AM 51.8 °F 46.4 °F 82% 29.84 in 10.0 mi SE 3.5 mph - N/A   Clear
1:55 AM 51.8 °F 44.6 °F 76% 29.84 in 10.0 mi SSE 5.8 mph - N/A   Clear
2:15 AM 51.8 °F 44.6 °F 76% 29.84 in 0.8 mi SE 5.8 mph - N/A   Mostly Cloudy
2:35 AM 51.8 °F 44.6 °F 76% 29.84 in 10.0 mi SE 5.8 mph - N/A   Mostly Cloudy
2:55 AM 51.8 °F 44.6 °F 76% 29.84 in 10.0 mi ESE 6.9 mph - N/A   Scattered Clouds
3:15 AM 50.0 °F 42.8 °F 76% 29.85 in 10.0 mi SSE 6.9 mph - N/A   Partly Cloudy
3:35 AM 50.0 °F 42.8 °F 76% 29.85 in 0.5 mi Calm Calm - N/A   Overcast
3:55 AM 50.0 °F 42.8 °F 76% 29.85 in 0.5 mi SE 4.6 mph - N/A   Overcast
4:15 AM 50.0 °F 44.6 °F 82% 29.86 in 0.8 mi SE 4.6 mph - N/A   Overcast
4:35 AM 50.0 °F 44.6 °F 82% 29.86 in 0.5 mi ESE 6.9 mph - N/A   Overcast
4:55 AM 48.2 °F 42.8 °F 82% 29.87 in 10.0 mi SE 5.8 mph - N/A   Overcast
5:15 AM 48.2 °F 42.8 °F 82% 29.88 in 7.0 mi ESE 5.8 mph - N/A   Overcast
5:35 AM 48.2 °F 42.8 °F 82% 29.89 in 6.0 mi ESE 5.8 mph - N/A   Overcast
5:55 AM 48.2 °F 42.8 °F 82% 29.89 in 4.0 mi SE 8.1 mph - N/A   Overcast
6:15 AM 48.2 °F 42.8 °F 82% 29.90 in 1.2 mi ESE 4.6 mph - N/A   Overcast
6:35 AM 48.2 °F 42.8 °F 82% 29.90 in 0.5 mi ESE 6.9 mph - N/A   Overcast
6:55 AM 48.2 °F 42.8 °F 82% 29.90 in 8.0 mi SE 5.8 mph - N/A   Overcast
7:15 AM 50.0 °F 44.6 °F 82% 29.90 in 1.2 mi SE 4.6 mph - N/A   Overcast
7:35 AM 51.8 °F 44.6 °F 76% 29.91 in 0.5 mi SE 3.5 mph - N/A   Overcast
7:55 AM 51.8 °F 46.4 °F 82% 29.91 in 1.0 mi Calm Calm - N/A   Overcast
8:15 AM 53.6 °F 46.4 °F 77% 29.91 in 10.0 mi Calm Calm - N/A   Overcast
8:35 AM 53.6 °F 46.4 °F 77% 29.92 in 10.0 mi Calm Calm - N/A   Mostly Cloudy
8:55 AM 55.4 °F 48.2 °F 77% 29.93 in 10.0 mi SSW 3.5 mph - N/A   Scattered Clouds
9:15 AM 57.2 °F 48.2 °F 72% 29.92 in 10.0 mi Calm Calm - N/A   Partly Cloudy
9:35 AM 60.8 °F 48.2 °F 63% 29.92 in 10.0 mi Calm Calm - N/A   Clear
9:55 AM 62.6 °F 50.0 °F 63% 29.91 in 10.0 mi Calm Calm - N/A   Clear
10:15 AM 62.6 °F 50.0 °F 63% 29.91 in 10.0 mi Calm Calm - N/A   Clear
10:35 AM 64.4 °F 51.8 °F 64% 29.91 in 10.0 mi Calm Calm - N/A   Clear
10:55 AM 64.4 °F 50.0 °F 59% 29.91 in 10.0 mi NNW 3.5 mph - N/A   Clear
11:15 AM 66.2 °F 48.2 °F 52% 29.91 in 10.0 mi NE 5.8 mph - N/A   Clear
11:35 AM 66.2 °F 48.2 °F 52% 29.90 in 10.0 mi North 5.8 mph - N/A   Clear
11:55 AM 69.8 °F 50.0 °F 49% 29.90 in 10.0 mi North 4.6 mph - N/A   Clear
12:15 PM 69.8 °F 46.4 °F 43% 29.90 in 10.0 mi WNW 4.6 mph - N/A   Clear
12:35 PM 69.8 °F 44.6 °F 40% 29.89 in 10.0 mi WNW 9.2 mph - N/A   Clear
12:55 PM 69.8 °F 44.6 °F 40% 29.89 in 10.0 mi NW 4.6 mph - N/A   Clear
1:15 PM 71.6 °F 44.6 °F 38% 29.89 in 10.0 mi NW 5.8 mph - N/A   Clear
1:35 PM 71.6 °F 44.6 °F 38% 29.89 in 10.0 mi West 5.8 mph - N/A   Partly Cloudy
1:55 PM 71.6 °F 46.4 °F 41% 29.88 in 10.0 mi WSW 6.9 mph - N/A   Scattered Clouds
2:15 PM 71.6 °F 46.4 °F 41% 29.87 in 10.0 mi WSW 10.4 mph - N/A   Mostly Cloudy
2:35 PM 71.6 °F 46.4 °F 41% 29.87 in 10.0 mi WNW 4.6 mph - N/A   Mostly Cloudy
2:55 PM 73.4 °F 44.6 °F 36% 29.87 in 10.0 mi NW 8.1 mph - N/A   Partly Cloudy
3:35 PM 71.6 °F 46.4 °F 41% 29.87 in 10.0 mi West 6.9 mph - N/A   Mostly Cloudy
3:55 PM 71.6 °F 46.4 °F 41% 29.87 in 10.0 mi WSW 6.9 mph - N/A   Mostly Cloudy
4:35 PM 71.6 °F 48.2 °F 43% 29.87 in 10.0 mi West 4.6 mph - N/A   Overcast
4:55 PM 71.6 °F 48.2 °F 43% 29.87 in 10.0 mi West 9.2 mph - N/A   Mostly Cloudy
5:15 PM 71.6 °F 51.8 °F 50% 29.87 in 10.0 mi WSW 6.9 mph - N/A   Scattered Clouds
5:35 PM 71.6 °F 53.6 °F 53% 29.88 in 10.0 mi WSW 8.1 mph - N/A   Mostly Cloudy
5:55 PM 69.8 °F 51.8 °F 53% 29.88 in 10.0 mi Calm Calm - N/A   Mostly Cloudy
6:15 PM 69.8 °F 51.8 °F 53% 29.88 in 10.0 mi West 3.5 mph - N/A   Mostly Cloudy
6:35 PM 69.8 °F 51.8 °F 53% 29.89 in 10.0 mi Calm Calm - N/A   Mostly Cloudy
6:55 PM 69.8 °F 51.8 °F 53% 29.89 in 10.0 mi Calm Calm - N/A   Overcast
7:15 PM 69.8 °F 53.6 °F 56% 29.89 in 10.0 mi Calm Calm - N/A   Overcast
7:35 PM 69.8 °F 53.6 °F 56% 29.90 in 10.0 mi Calm Calm - N/A   Overcast
7:55 PM 66.2 °F 55.4 °F 68% 29.90 in 10.0 mi Calm Calm - N/A   Overcast
8:15 PM 66.2 °F 53.6 °F 64% 29.91 in 10.0 mi Calm Calm - N/A   Overcast
8:35 PM 64.4 °F 53.6 °F 68% 29.91 in 10.0 mi ESE 4.6 mph - N/A   Overcast
8:55 PM 64.4 °F 53.6 °F 68% 29.92 in 10.0 mi SE 5.8 mph - N/A   Mostly Cloudy
9:15 PM 64.4 °F 53.6 °F 68% 29.93 in 10.0 mi Calm Calm - N/A   Mostly Cloudy
9:35 PM 62.6 °F 53.6 °F 72% 29.94 in 10.0 mi SSE 4.6 mph - N/A   Mostly Cloudy
9:55 PM 62.6 °F 53.6 °F 72% 29.95 in 10.0 mi ESE 8.1 mph - N/A   Mostly Cloudy
10:15 PM 62.6 °F 51.8 °F 68% 29.95 in 10.0 mi ESE 8.1 mph - N/A   Mostly Cloudy
10:35 PM 62.6 °F 51.8 °F 68% 29.96 in 10.0 mi ESE 8.1 mph - N/A   Overcast
10:55 PM 62.6 °F 51.8 °F 68% 29.96 in 10.0 mi South 3.5 mph - N/A   Mostly Cloudy
11:15 PM 60.8 °F 51.8 °F 72% 29.97 in 10.0 mi ESE 6.9 mph - N/A   Partly Cloudy
11:35 PM 60.8 °F 51.8 °F 72% 29.98 in 10.0 mi ESE 5.8 mph - N/A   Clear
11:55 PM 60.8 °F 50.0 °F 68% 29.98 in 10.0 mi SE 5.8 mph - N/A   Scattered Clouds